Time,TemperatureF,DewpointF,PressureIn,WindDirection,WindDirectionDegrees,WindSpeedMPH,WindSpeedGustMPH,Humidity,HourlyPrecipIn,Conditions,Clouds,dailyrainin,SoftwareType,DateUTC
2013-10-18 00:13:00,59.0,52.0,29.98,NE,48,0.0,0.0,79,0.00,,,0.00,,2013-10-18 05:13:00,
2013-10-18 00:23:00,59.0,52.0,29.98,NE,48,0.0,0.0,79,0.00,,,0.00,,2013-10-18 05:23:00,
2013-10-18 00:43:00,59.0,53.0,29.98,NE,48,0.0,0.0,80,0.00,,,0.00,,2013-10-18 05:43:00,
2013-10-18 00:52:00,59.0,53.0,29.98,NE,48,0.0,0.0,80,0.00,,,0.00,,2013-10-18 05:52:00,
2013-10-18 01:12:00,58.0,53.0,29.97,NE,48,0.0,0.0,83,0.00,,,0.00,,2013-10-18 06:12:00,
2013-10-18 01:21:00,57.0,52.0,29.97,NE,48,0.0,0.0,83,0.00,,,0.00,,2013-10-18 06:21:00,
2013-10-18 01:42:00,57.0,52.0,29.97,NE,48,0.0,0.0,84,0.00,,,0.00,,2013-10-18 06:42:00,
2013-10-18 01:52:00,57.0,53.0,29.97,NE,48,0.0,0.0,85,0.00,,,0.00,,2013-10-18 06:52:00,
2013-10-18 02:11:00,57.0,53.0,29.96,NE,48,0.0,0.0,86,0.00,,,0.00,,2013-10-18 07:11:00,
2013-10-18 02:21:00,57.0,53.0,29.97,NE,48,0.0,0.0,85,0.00,,,0.00,,2013-10-18 07:21:00,
2013-10-18 02:42:00,57.0,53.0,29.97,NE,48,0.0,0.0,86,0.00,,,0.00,,2013-10-18 07:42:00,
2013-10-18 02:52:00,57.0,53.0,29.96,NE,48,0.0,0.0,86,0.00,,,0.00,,2013-10-18 07:52:00,
2013-10-18 03:11:00,58.0,53.0,29.97,NE,48,0.0,0.0,84,0.00,,,0.00,,2013-10-18 08:11:00,
2013-10-18 03:20:00,59.0,53.0,29.96,NE,48,0.0,0.0,81,0.00,,,0.00,,2013-10-18 08:20:00,
2013-10-18 03:22:00,59.0,54.0,29.96,NE,48,0.0,0.0,83,0.00,,,0.00,,2013-10-18 08:22:00,
2013-10-18 03:32:00,59.0,54.0,29.96,NE,48,0.0,0.0,83,0.00,,,0.00,,2013-10-18 08:32:00,
2013-10-18 03:42:00,59.0,54.0,29.96,NE,48,0.0,0.0,83,0.00,,,0.00,,2013-10-18 08:42:00,
2013-10-18 03:52:00,59.0,53.0,29.96,NE,48,0.0,0.0,81,0.00,,,0.00,,2013-10-18 08:52:00,
2013-10-18 04:02:00,59.0,53.0,29.96,NE,48,0.0,0.0,81,0.00,,,0.00,,2013-10-18 09:02:00,
2013-10-18 04:12:00,59.0,53.0,29.96,NE,48,0.0,0.0,81,0.00,,,0.00,,2013-10-18 09:12:00,
2013-10-18 04:53:00,61.0,54.0,29.93,NE,48,0.0,0.0,79,0.00,,,0.00,,2013-10-18 09:53:00,
2013-10-18 05:12:00,61.0,54.0,29.93,NE,48,0.0,0.0,79,0.00,,,0.00,,2013-10-18 10:12:00,
2013-10-18 05:23:00,61.0,54.0,29.92,NE,48,0.0,4.0,79,0.00,,,0.00,,2013-10-18 10:23:00,
2013-10-18 05:43:00,61.0,54.0,29.92,NE,48,1.0,3.0,79,0.00,,,0.00,,2013-10-18 10:43:00,
2013-10-18 05:53:00,61.0,54.0,29.92,NE,48,0.0,3.0,79,0.00,,,0.00,,2013-10-18 10:53:00,
2013-10-18 06:03:00,61.0,54.0,29.92,NE,48,0.0,3.0,79,0.00,,,0.00,,2013-10-18 11:03:00,
2013-10-18 06:12:00,61.0,54.0,29.92,NE,48,0.0,3.0,79,0.00,,,0.00,,2013-10-18 11:12:00,
2013-10-18 06:22:00,61.0,55.0,29.93,NE,48,0.0,0.0,80,0.00,,,0.00,,2013-10-18 11:22:00,
2013-10-18 06:33:00,61.0,55.0,29.93,NE,48,0.0,0.0,80,0.00,,,0.00,,2013-10-18 11:33:00,
2013-10-18 06:42:00,61.0,55.0,29.93,NE,48,0.0,0.0,80,0.00,,,0.00,,2013-10-18 11:42:00,
2013-10-18 06:52:00,61.0,55.0,29.93,NE,48,0.0,0.0,82,0.00,,,0.00,,2013-10-18 11:52:00,
2013-10-18 07:02:00,61.0,55.0,29.93,NE,48,0.0,0.0,82,0.00,,,0.00,,2013-10-18 12:02:00,
2013-10-18 07:12:00,61.0,55.0,29.93,NE,48,0.0,0.0,82,0.00,,,0.00,,2013-10-18 12:12:00,
2013-10-18 07:21:00,61.0,56.0,29.93,NE,48,0.0,0.0,83,0.00,,,0.00,,2013-10-18 12:21:00,
2013-10-18 07:32:00,61.0,56.0,29.93,NE,48,0.0,0.0,83,0.00,,,0.00,,2013-10-18 12:32:00,
2013-10-18 07:42:00,61.0,56.0,29.93,NE,48,0.0,0.0,83,0.00,,,0.00,,2013-10-18 12:42:00,
2013-10-18 07:52:00,61.0,56.0,29.93,NE,48,0.0,0.0,83,0.00,,,0.00,,2013-10-18 12:52:00,
2013-10-18 08:11:00,61.0,56.0,29.93,NE,48,0.0,1.0,85,0.00,,,0.00,,2013-10-18 13:11:00,
2013-10-18 08:22:00,61.0,56.0,29.93,NE,48,0.0,1.0,85,0.00,,,0.00,,2013-10-18 13:22:00,
2013-10-18 08:42:00,61.0,56.0,29.94,NE,48,0.0,0.0,85,0.00,,,0.00,,2013-10-18 13:42:00,
2013-10-18 08:52:00,61.0,56.0,29.95,NE,48,0.0,0.0,85,0.00,,,0.00,,2013-10-18 13:52:00,
2013-10-18 09:11:00,62.0,57.0,29.95,NE,48,0.0,0.0,85,0.00,,,0.00,,2013-10-18 14:11:00,
2013-10-18 09:21:00,62.0,57.0,29.96,NE,48,0.0,0.0,84,0.00,,,0.00,,2013-10-18 14:21:00,
2013-10-18 09:32:00,62.0,57.0,29.96,NE,48,0.0,0.0,84,0.00,,,0.00,,2013-10-18 14:32:00,
2013-10-18 09:42:00,62.0,57.0,29.96,NE,48,0.0,0.0,84,0.00,,,0.00,,2013-10-18 14:42:00,
2013-10-18 09:52:00,63.0,58.0,29.96,NE,48,0.0,0.0,84,0.00,,,0.00,,2013-10-18 14:52:00,
2013-10-18 10:11:00,63.0,58.0,29.96,NE,48,0.0,0.0,83,0.00,,,0.00,,2013-10-18 15:11:00,
2013-10-18 10:22:00,64.0,59.0,29.96,NE,48,0.0,0.0,83,0.00,,,0.00,,2013-10-18 15:22:00,
2013-10-18 10:43:00,65.0,60.0,29.95,NE,48,0.0,4.0,83,0.00,,,0.00,,2013-10-18 15:43:00,
2013-10-18 10:54:00,67.0,60.0,29.96,NE,48,0.0,0.0,79,0.00,,,0.00,,2013-10-18 15:54:00,
2013-10-18 11:04:00,67.0,60.0,29.96,NE,48,0.0,0.0,79,0.00,,,0.00,,2013-10-18 16:04:00,
2013-10-18 11:12:00,67.0,60.0,29.96,NE,48,0.0,0.0,79,0.00,,,0.00,,2013-10-18 16:12:00,
2013-10-18 11:24:00,68.0,61.0,29.95,NE,48,0.0,0.0,79,0.00,,,0.00,,2013-10-18 16:24:00,
2013-10-18 11:33:00,68.0,61.0,29.95,NE,48,0.0,0.0,79,0.00,,,0.00,,2013-10-18 16:33:00,
2013-10-18 11:42:00,68.0,61.0,29.95,NE,48,0.0,0.0,79,0.00,,,0.00,,2013-10-18 16:42:00,
2013-10-18 11:53:00,70.0,62.0,29.95,NE,48,0.0,2.0,77,0.00,,,0.00,,2013-10-18 16:53:00,
2013-10-18 12:12:00,70.0,62.0,29.95,NE,48,0.0,0.0,76,0.00,,,0.00,,2013-10-18 17:12:00,
2013-10-18 12:22:00,70.0,62.0,29.94,NE,48,0.0,0.0,77,0.00,,,0.00,,2013-10-18 17:22:00,
2013-10-18 12:42:00,71.0,63.0,29.93,NE,48,0.0,1.0,76,0.00,,,0.00,,2013-10-18 17:42:00,
2013-10-18 12:52:00,71.0,63.0,29.92,NE,48,0.0,1.0,76,0.00,,,0.00,,2013-10-18 17:52:00,
2013-10-18 13:12:00,71.0,63.0,29.92,NE,48,0.0,0.0,77,0.00,,,0.00,,2013-10-18 18:12:00,
2013-10-18 13:22:00,71.0,63.0,29.91,NE,48,0.0,0.0,77,0.00,,,0.00,,2013-10-18 18:22:00,
2013-10-18 13:32:00,71.0,63.0,29.91,NE,48,0.0,0.0,77,0.00,,,0.00,,2013-10-18 18:32:00,
2013-10-18 13:42:00,71.0,63.0,29.91,NE,48,0.0,0.0,77,0.00,,,0.00,,2013-10-18 18:42:00,
2013-10-18 13:52:00,72.0,64.0,29.89,NE,48,0.0,0.0,77,0.00,,,0.00,,2013-10-18 18:52:00,
2013-10-18 14:01:00,72.0,64.0,29.89,NE,48,0.0,0.0,77,0.00,,,0.00,,2013-10-18 19:01:00,
2013-10-18 14:12:00,72.0,64.0,29.89,NE,48,0.0,0.0,77,0.00,,,0.00,,2013-10-18 19:12:00,
2013-10-18 14:22:00,74.0,66.0,29.87,NE,48,0.0,3.0,75,0.00,,,0.00,,2013-10-18 19:22:00,
2013-10-18 14:32:00,74.0,66.0,29.87,NE,48,0.0,3.0,75,0.00,,,0.00,,2013-10-18 19:32:00,
2013-10-18 14:42:00,74.0,66.0,29.87,NE,48,0.0,3.0,75,0.00,,,0.00,,2013-10-18 19:42:00,
2013-10-18 14:52:00,74.0,65.0,29.86,NE,49,0.0,4.0,73,0.00,,,0.00,,2013-10-18 19:52:00,
2013-10-18 15:02:00,74.0,65.0,29.86,NE,49,0.0,4.0,73,0.00,,,0.00,,2013-10-18 20:02:00,
2013-10-18 15:10:00,73.0,65.0,29.85,NE,51,0.0,3.0,77,0.00,,,0.00,,2013-10-18 20:10:00,
2013-10-18 15:11:00,74.0,65.0,29.86,NE,49,0.0,4.0,73,0.00,,,0.00,,2013-10-18 20:11:00,
2013-10-18 15:22:00,74.0,66.0,29.86,NE,51,1.0,2.0,75,0.00,,,0.00,,2013-10-18 20:22:00,
2013-10-18 15:42:00,73.0,65.0,29.85,NE,51,0.0,3.0,77,0.00,,,0.00,,2013-10-18 20:42:00,
2013-10-18 15:52:00,73.0,65.0,29.85,NE,51,0.0,3.0,77,0.00,,,0.00,,2013-10-18 20:52:00,
2013-10-18 16:02:00,73.0,65.0,29.85,NE,51,0.0,3.0,77,0.00,,,0.00,,2013-10-18 21:02:00,
2013-10-18 16:22:00,72.0,65.0,29.85,NE,52,0.0,3.0,79,0.00,,,0.00,,2013-10-18 21:22:00,
2013-10-18 16:34:00,72.0,65.0,29.85,NE,52,0.0,3.0,79,0.00,,,0.00,,2013-10-18 21:34:00,
2013-10-18 16:44:00,72.0,65.0,29.85,NE,52,0.0,3.0,79,0.00,,,0.00,,2013-10-18 21:44:00,
2013-10-18 16:54:00,71.0,66.0,29.85,NE,52,0.0,1.0,83,0.00,,,0.00,,2013-10-18 21:54:00,
2013-10-18 17:13:00,70.0,65.0,29.85,NE,52,0.0,0.0,84,0.00,,,0.00,,2013-10-18 22:13:00,
2013-10-18 17:24:00,70.0,66.0,29.85,NE,52,0.0,0.0,86,0.00,,,0.00,,2013-10-18 22:24:00,
2013-10-18 17:33:00,70.0,66.0,29.85,NE,52,0.0,0.0,86,0.00,,,0.00,,2013-10-18 22:33:00,
2013-10-18 17:40:00,69.0,66.0,29.85,NE,52,0.0,0.0,90,0.00,,,0.00,,2013-10-18 22:40:00,
2013-10-18 17:43:00,70.0,66.0,29.85,NE,52,0.0,0.0,86,0.00,,,0.00,,2013-10-18 22:43:00,
2013-10-18 17:54:00,69.0,65.0,29.85,NE,52,0.0,1.0,88,0.00,,,0.00,,2013-10-18 22:54:00,
2013-10-18 18:12:00,69.0,66.0,29.85,NE,52,0.0,0.0,90,0.00,,,0.00,,2013-10-18 23:12:00,
2013-10-18 18:23:00,69.0,66.0,29.85,NE,52,0.0,0.0,90,0.00,,,0.00,,2013-10-18 23:23:00,
2013-10-18 18:34:00,69.0,66.0,29.85,NE,52,0.0,0.0,90,0.00,,,0.00,,2013-10-18 23:34:00,
2013-10-18 18:53:00,68.0,66.0,29.85,NE,52,0.0,3.0,92,0.01,,,0.01,,2013-10-18 23:53:00,
2013-10-18 19:02:00,68.0,66.0,29.85,NE,52,0.0,3.0,92,0.01,,,0.01,,2013-10-19 00:02:00,
2013-10-18 19:11:00,68.0,66.0,29.85,NE,52,0.0,3.0,92,0.01,,,0.01,,2013-10-19 00:11:00,
2013-10-18 19:22:00,67.0,65.0,29.86,NE,52,0.0,0.0,93,0.01,,,0.01,,2013-10-19 00:22:00,
2013-10-18 19:42:00,67.0,65.0,29.86,NE,52,0.0,1.0,93,0.00,,,0.01,,2013-10-19 00:42:00,
2013-10-18 19:50:00,67.0,65.0,29.88,NE,52,0.0,3.0,94,0.01,,,0.02,,2013-10-19 00:50:00,
2013-10-18 19:52:00,67.0,65.0,29.87,NE,52,0.0,3.0,94,0.00,,,0.01,,2013-10-19 00:52:00,
2013-10-18 20:02:00,67.0,65.0,29.87,NE,52,0.0,3.0,94,0.00,,,0.01,,2013-10-19 01:02:00,
2013-10-18 20:11:00,67.0,65.0,29.87,NE,52,0.0,3.0,94,0.00,,,0.01,,2013-10-19 01:11:00,
2013-10-18 20:21:00,67.0,65.0,29.88,NE,52,0.0,3.0,94,0.01,,,0.02,,2013-10-19 01:21:00,
2013-10-18 20:32:00,67.0,65.0,29.88,NE,52,0.0,3.0,94,0.01,,,0.02,,2013-10-19 01:32:00,
2013-10-18 20:42:00,67.0,65.0,29.88,NE,52,0.0,3.0,94,0.01,,,0.02,,2013-10-19 01:42:00,
2013-10-18 21:12:00,67.0,66.0,29.90,NE,52,0.0,0.0,95,0.01,,,0.02,,2013-10-19 02:12:00,
2013-10-18 21:22:00,67.0,66.0,29.91,NE,52,0.0,2.0,95,0.01,,,0.02,,2013-10-19 02:22:00,
2013-10-18 21:42:00,67.0,65.0,29.91,NE,52,0.0,0.0,94,0.00,,,0.02,,2013-10-19 02:42:00,
2013-10-18 21:52:00,67.0,66.0,29.91,NE,52,0.0,3.0,95,0.01,,,0.03,,2013-10-19 02:52:00,
2013-10-18 22:03:00,67.0,66.0,29.91,NE,52,0.0,3.0,95,0.01,,,0.03,,2013-10-19 03:03:00,
2013-10-18 22:12:00,67.0,66.0,29.91,NE,52,0.0,3.0,95,0.01,,,0.03,,2013-10-19 03:12:00,
2013-10-18 22:23:00,66.0,65.0,29.92,NE,52,0.0,0.0,95,0.02,,,0.04,,2013-10-19 03:23:00,
2013-10-18 22:34:00,66.0,65.0,29.92,NE,52,0.0,0.0,95,0.02,,,0.04,,2013-10-19 03:34:00,
2013-10-18 22:45:00,66.0,65.0,29.92,NE,52,0.0,0.0,95,0.02,,,0.04,,2013-10-19 03:45:00,
2013-10-18 22:55:00,66.0,65.0,29.93,NE,52,0.0,1.0,95,0.02,,,0.04,,2013-10-19 03:55:00,
2013-10-18 23:05:00,66.0,65.0,29.93,NE,52,0.0,1.0,95,0.02,,,0.04,,2013-10-19 04:05:00,
2013-10-18 23:13:00,66.0,65.0,29.93,NE,52,0.0,1.0,95,0.02,,,0.04,,2013-10-19 04:13:00,
2013-10-18 23:24:00,66.0,65.0,29.94,NE,52,0.0,2.0,95,0.00,,,0.04,,2013-10-19 04:24:00,
2013-10-18 23:44:00,66.0,65.0,29.94,NE,52,2.0,3.0,95,0.00,,,0.04,,2013-10-19 04:44:00,
2013-10-18 23:54:00,66.0,65.0,29.95,NE,52,0.0,0.0,95,0.00,,,0.04,,2013-10-19 04:54:00,